Location: Newark
(44.7167°N, 8.0833°E)
Time: 00:30:46
(UTC+00:00)

ISS - Visible Passes

Search period start: 16 December 2019 00:00
Search period end: 26 December 2019 00:00
Orbit: 411 x 421 km, 51.6° (Epoch: 16 December)

Date Brightness Start Highest point End Pass type
(mag) Time Alt. Az. Time Alt. Az. Time Alt. Az.
20 Dec -0.6 06:07:41 10° S 06:10:00 18° SE 06:12:18 10° E visible
21 Dec -0.2 05:20:54 10° SE 05:21:39 11° SE 05:22:24 10° ESE visible
22 Dec -2.5 06:06:10 10° SW 06:09:21 44° SE 06:12:32 10° ENE visible
23 Dec -1.6 05:18:03 10° SSW 05:20:54 27° SE 05:23:45 10° E visible
24 Dec -1.1 04:31:35 15° SSE 04:32:29 16° SE 04:34:40 10° E visible
24 Dec -3.9 06:05:33 10° WSW 06:08:51 76° NNW 06:12:11 10° ENE visible
25 Dec -3.6 05:18:52 31° SW 05:20:17 68° SE 05:23:35 10° ENE visible
